Simultaneous Nadir Overpasses (SNOs) Predictions

Prediction of SNOs between AQUA and GOES-15 Satellite Orbit:

Table of predicted SNOs for the next 14.0 days since TLE Epoch: 6/10/2016
Index Date Time (AQUA) AQUA Lat,Lon GOES-15 Lat,Lon Distance(km) Time Diff (sec)
1 06/11/2016 10:38:03 0.03,-135.64 -0.02,-135.28 40.16 80
2 06/13/2016 10:25:50 -0.56,-132.67 -0.02,-135.33 302.04 80
3 06/13/2016 22:47:14 -0.48,-137.87 0.04,-135.32 289.98 80
4 06/15/2016 22:35:01 0.11,-134.91 0.04,-135.37 51.54 80
5 06/17/2016 22:22:50 0.77,-131.96 0.04,-135.41 392.27 80
6 06/18/2016 10:44:05 0.27,-137.12 -0.06,-135.44 190.68 80
7 06/20/2016 10:31:52 -0.33,-134.16 -0.06,-135.47 149.26 80
8 06/20/2016 22:53:16 -0.77,-139.35 0.07,-135.45 443.32 80
9 06/22/2016 10:19:39 -0.95,-131.20 -0.05,-135.50 488.58 80
10 06/22/2016 22:41:03 -0.15,-136.39 0.07,-135.48 104.21 80




NCC Satellite Simultaneous Nadir Overpasses (SNOs) Prediction Service
